Regional Weather Roundup
Issued by NWS

Home | Current Version | Previous Version | Text Only | Print | Product List | Glossary On
Versions: 1 2 3 4 5 6 7 8 9 10 11 12 13 14 15 16 17 18 19 20 21 22 23 24 25 26 27 28 29 30 31 32 33 34 35 36 37 38 39 40 41 42 43 44 45 46 47 48 49 50
000
ASUS43 KBIS 061801
RWRND

NORTH DAKOTA REGIONAL WEATHER ROUNDUP
NATIONAL WEATHER SERVICE BISMARCK ND
1200 PM CST FRI MAR 06 2015

NOTE: "FAIR" INDICATES FEW OR NO CLOUDS BELOW 12,000 FEET WITH NO
SIGNIFICANT WEATHER AND/OR OBSTRUCTIONS TO VISIBILITY.


NDZ001>003-009>011-017-061900-
NORTHWEST NORTH DAKOTA

CITY           SKY/WX    TMP DP  RH WIND       PRES   REMARKS
WILLISTON      CLOUDY    37  23  56 S9        30.01F
6HR MIN TEMP:  14; 6HR MAX TEMP:  37;

MINOT          FAIR      33  18  53 S13       30.01F
MINOT AFB      FAIR      33  22  63 SW13      30.00F
$$

NDZ018>021-031>035-040>046-061900-
SOUTHWEST NORTH DAKOTA

CITY           SKY/WX    TMP DP  RH WIND       PRES   REMARKS
BISMARCK       PTSUNNY   36  18  48 CALM      30.11F
6HR MIN TEMP:  12; 6HR MAX TEMP:  36;

DICKINSON      CLOUDY    45  18  34 W13       30.02F
GARRISON         N/A     31  21  66 S8        30.05F
6HR MIN TEMP:  12; 6HR MAX TEMP:  31;

HETTINGER ARPT CLOUDY    45  19  35 W12       30.08S
$$

NDZ004>008-012>016-024-026-027-054-061900-
NORTHEAST NORTH DAKOTA

CITY           SKY/WX    TMP DP  RH WIND       PRES   REMARKS
GRAND FORKS    PTSUNNY   32  15  49 W6        30.07F
GRND FRKS AFB  FAIR      33  14  46 W10       30.06F
DEVILS LAKE    FAIR      28  18  64 W10       30.05F WCI  19
$$

NDZ022-023-025-028>030-036>039-047>053-061900-
SOUTHEAST NORTH DAKOTA

CITY           SKY/WX    TMP DP  RH WIND       PRES   REMARKS
FARGO          FAIR      32  18  56 NW12      30.09F
6HR MIN TEMP:  12; 6HR MAX TEMP:  32;

JAMESTOWN      FAIR      30  18  60 W10       30.07F
$$



USA.gov is the U.S. government's official web portal to all federal, state and local government web resources and services.